TimeCST,TemperatureF,Dew PointF,Humidity,Sea Level PressureIn,VisibilityMPH,Wind Direction,Wind SpeedMPH,Gust SpeedMPH,PrecipitationIn,Events,Conditions,WindDirDegrees,DateUTC
12:53 AM,50.0,48.2,94,30.30,3.0,Calm,Calm,-,N/A,Fog,Shallow Fog,0,2013-01-23 06:53:00
1:53 AM,50.0,48.9,96,30.31,1.0,Calm,Calm,-,N/A,Fog,Shallow Fog,0,2013-01-23 07:53:00
2:29 AM,48.2,46.4,93,30.29,0.8,Calm,Calm,-,N/A,,Mist,0,2013-01-23 08:29:00
2:39 AM,48.2,46.4,93,30.29,0.2,Calm,Calm,-,N/A,Fog,Fog,0,2013-01-23 08:39:00
2:50 AM,48.2,46.4,93,30.29,0.2,Calm,Calm,-,N/A,Fog,Fog,0,2013-01-23 08:50:00
2:53 AM,48.0,46.9,96,30.31,0.2,Calm,Calm,-,N/A,Fog,Fog,0,2013-01-23 08:53:00
3:53 AM,48.0,48.0,100,30.31,0.2,Calm,Calm,-,N/A,Fog,Fog,0,2013-01-23 09:53:00
4:53 AM,48.0,46.9,96,30.30,0.2,Calm,Calm,-,N/A,Fog,Fog,0,2013-01-23 10:53:00
5:53 AM,50.0,48.9,96,30.31,0.2,Calm,Calm,-,N/A,Fog,Fog,0,2013-01-23 11:53:00
6:53 AM,52.0,51.1,97,30.32,0.2,Calm,Calm,-,N/A,Fog,Fog,0,2013-01-23 12:53:00
7:28 AM,51.8,51.8,100,30.31,0.1,Calm,Calm,-,N/A,Fog,Fog,0,2013-01-23 13:28:00
7:43 AM,53.6,51.8,94,30.31,0.2,ESE,3.5,-,0.01,Fog,Fog,110,2013-01-23 13:43:00
7:49 AM,53.6,53.6,100,30.31,0.0,East,3.5,-,N/A,Fog,Fog,100,2013-01-23 13:49:00
7:53 AM,54.0,53.1,97,30.33,0.0,Calm,Calm,-,N/A,Fog,Fog,0,2013-01-23 13:53:00
8:35 AM,55.4,53.6,94,30.33,1.0,East,3.5,-,N/A,,Partly Cloudy,90,2013-01-23 14:35:00
8:53 AM,57.0,55.9,96,30.35,3.0,East,4.6,-,N/A,,Clear,100,2013-01-23 14:53:00
9:53 AM,64.0,57.0,78,30.37,10.0,ESE,5.8,-,N/A,,Clear,120,2013-01-23 15:53:00
10:53 AM,70.0,57.0,63,30.36,10.0,South,8.1,-,N/A,,Clear,180,2013-01-23 16:53:00
11:53 AM,72.0,57.0,59,30.35,10.0,South,10.4,-,N/A,,Scattered Clouds,180,2013-01-23 17:53:00
12:53 PM,72.0,55.0,55,30.31,10.0,SSW,10.4,16.1,N/A,,Scattered Clouds,200,2013-01-23 18:53:00
1:53 PM,73.0,55.0,53,30.28,10.0,SSW,8.1,-,N/A,,Scattered Clouds,210,2013-01-23 19:53:00
2:53 PM,73.0,55.9,55,30.27,10.0,South,8.1,-,N/A,,Mostly Cloudy,180,2013-01-23 20:53:00
3:53 PM,72.0,57.9,61,30.27,10.0,South,13.8,-,N/A,,Mostly Cloudy,170,2013-01-23 21:53:00
4:53 PM,70.0,57.9,65,30.27,10.0,SSE,6.9,-,N/A,,Mostly Cloudy,160,2013-01-23 22:53:00
5:53 PM,66.9,57.9,73,30.27,10.0,SSE,5.8,-,N/A,,Scattered Clouds,160,2013-01-23 23:53:00
6:53 PM,64.9,57.9,78,30.26,10.0,South,6.9,-,N/A,,Partly Cloudy,170,2013-01-24 00:53:00
7:53 PM,63.0,57.9,84,30.26,10.0,South,5.8,-,N/A,,Clear,170,2013-01-24 01:53:00
8:53 PM,62.1,59.0,90,30.27,10.0,South,5.8,-,N/A,,Clear,170,2013-01-24 02:53:00
9:53 PM,61.0,59.0,93,30.27,10.0,South,5.8,-,N/A,,Clear,170,2013-01-24 03:53:00
10:53 PM,61.0,59.0,93,30.27,7.0,South,5.8,-,N/A,,Clear,180,2013-01-24 04:53:00
11:53 PM,60.1,57.9,93,30.27,5.0,South,6.9,-,N/A,,Clear,190,2013-01-24 05:53:00